User: anonymous   Login
Location: Unspecified
(0.0000°N, 0.0000°E)
Time: 00:48:02
(UTC+00:00)
Language:

NLS 7.1/CANX 4 - Orbit

View from above orbital plane
View from above orbital plane
View from above satellite
View from above satellite

Ground track
Ground track

The orbit is defined by the following mean orbital elements,

1 40055U          26118.23036675 +.00000000 +00000-0 +13897-3 0 00008
2 40055  98.3192 351.6947 0012992 166.0914 194.0657 14.81171192    00
Epoch (UTC): 28 April 2026 05:31:43
Eccentricity: 0.0012992
inclination: 98.3192°
perigee height: 617 km
apogee height: 635 km
right ascension of ascending node: 351.6947°
argument of perigee: 166.0914°
revolutions per day: 14.81171192
mean anomaly at epoch: 194.0657°

The dashed part of the orbit path shows where the satellite is in the earth's shadow,  

DLR